This is the latest recevied weather packets stored in our database for station/object CE1RLP-34. If no packets are shown the sender has not sent any weather packets the latest 10 day(s).
| Time | Temp. | Humidity | Pressure | Rain* | Wind** | Luminosity | Snow |
|---|---|---|---|---|---|---|---|
| 1778207722 | 8.33° C | 15% | 1080.8 hPa | - | - | - | - |
| 1778206820 | 8.33° C | 13% | 1080.9 hPa | - | - | - | - |
| 1778205920 | 8.33° C | 13% | 1080.8 hPa | - | - | - | - |
| 1778205017 | 8.33° C | 14% | 1081 hPa | - | - | - | - |
| 1778204117 | 8.33° C | 15% | 1081.1 hPa | - | - | - | - |
| 1778203215 | 8.33° C | 15% | 1081 hPa | - | - | - | - |
| 1778202315 | 8.33° C | 14% | 1080.8 hPa | - | - | - | - |
| 1778201412 | 8.33° C | 14% | 1081 hPa | - | - | - | - |
| 1778200512 | 8.89° C | 13% | 1081 hPa | - | - | - | - |
| 1778199610 | 9.44° C | 13% | 1080.9 hPa | - | - | - | - |
| 1778196937 | 10° C | 12% | 1081 hPa | - | - | - | - |
| 1778196034 | 10.56° C | 12% | 1080.8 hPa | - | - | - | - |
| 1778195134 | 11.11° C | 14% | 1081 hPa | - | - | - | - |
| 1778194232 | 12.22° C | 14% | 1080.8 hPa | - | - | - | - |
| 1778193332 | 13.33° C | 16% | 1080.9 hPa | - | - | - | - |
| 1778192429 | 14.44° C | 17% | 1080.7 hPa | - | - | - | - |
| 1778191529 | 16.11° C | 17% | 1080.6 hPa | - | - | - | - |
| 1778190627 | 16.67° C | 16% | 1080.3 hPa | - | - | - | - |
| 1778189727 | 17.22° C | 15% | 1080.5 hPa | - | - | - | - |
| 1778188824 | 17.78° C | 15% | 1080.2 hPa | - | - | - | - |
| 1778187924 | 18.33° C | 15% | 1080.3 hPa | - | - | - | - |
| 1778187022 | 18.89° C | 15% | 1080.2 hPa | - | - | - | - |
| 1778186121 | 19.44° C | 15% | 1079.9 hPa | - | - | - | - |
| 1778185220 | 20° C | 15% | 1080 hPa | - | - | - | - |
| 1778184319 | 21.11° C | 13% | 1080.1 hPa | - | - | - | - |
* Rain since midnight (hover to see other rain measurements)
** Current wind speed in m/s (hover to see current wind gust speed)